sat.trackr.live / text

‹ back to catalog

ALICE

NORAD 39467 · 2013-072F

PAYLOAD ACTIVE UNKNOWN

§ Identity

Operator
Country
US
Launch date
2013-12-06
Launch site
AFWTR
Launch vehicle
Mass (kg)
RCS (m²)

External: N2YO · Heavens-Above · Gunter

§ Orbital elements

Epoch: 2026-05-25T02:49:30.900864Z

Period
95.46 min
Inclination
120.4597°
Eccentricity
0.0159923
Mean motion
15.08467534 rev/d
Perigee alt
430.2 km
Apogee alt
651.5 km
Semi-major
6,919.0 km
B*
2.6748e-4
RAAN
212.6019°
Arg perigee
332.0640°
Mean anomaly
27.1918°
Rev number
11,179

§ Raw data

ALICE1 39467U 13072F   26145.11771876  .00005257  00000+0  26748-3 0  99962 39467 120.4597 212.6019 0159923 332.0640  27.1918 15.08467534111797

JSON: /api/v1/satellites/39467 · /tle

For live sub-satellite position, see the globe view (requires WebGL).

§ Visibility from observer

Set your observer location to see the next 7 days of passes ≥ 10°. The values pass through the URL so the page stays shareable.

No JS? Fill the form by hand. The geolocation button needs JavaScript.